{"data":{"norad_id":59447,"intl_designator":"2024-066F","name":"QPS-SAR-7 (TSUKUYOMI-II)","alt_names":[],"object_type":"PAYLOAD","status":"ACTIVE","operator":null,"country":"JPN","launch_date":"2024-04-07","launch_site_code":"AFETR","launch_vehicle":null,"mission":null,"orbit_class":"UNKNOWN","rcs_meters":null,"size_class":null,"mass_kg":null,"dimensions":null,"purposes":[],"wikipedia_slug":null,"has_3d_model":false,"image_url":null,"decayed_at":null,"tle_current":{"epoch":"2026-09-22T22:04:18.737184Z","epoch_age_seconds":54527,"freshness":"FRESH","line1":"1 59447U 24066F   26265.91966131  .00004989  00000+0  31775-3 0  9999","line2":"2 59447  45.6027  91.9880 0001917 199.8042 160.2769 15.09971411134996","mean_motion":15.09971411,"eccentricity":0.0001917,"inclination_deg":45.6027,"raan_deg":91.988,"arg_perigee_deg":199.8042,"mean_anomaly_deg":160.2769,"bstar":0.00031775,"rev_number":13499,"period_min":95.366043986643,"perigee_km":534.96178259253,"apogee_km":537.61277286061,"semimajor_km":6914.4242777266,"source":"CELESTRAK","updated_at":"2026-09-23T09:00:19.375103Z"}}}